[[{"header":{"parameterUnit":"m.s-1","parameterCategory":1,"la1":30.2991,"la2":30.254,"lo1":-89.0895,"lo2":-89.0444,"dy":0.0017,"dx":0.0017,"nx":28,"ny":28,"refTime":"2024-02-12T09:00:00:Z","depth":0,"parameterNumber":2,"parameterNumberName":"U-component_of_WINDS"},"data":[0,0,0,0,0,0,0,0,0,0,0,0,0,0,0,0,0,0,0,0,0,0,0,0,0,0,0,0,0,0,0,0,0,0,0,0,0,0,0,0,0,0,0,0,0,0,0,0,0,0,0,0,0,0,0,0,0,0,-1.4789,-1.479,0,-1.4888,-1.4889,-1.489,-1.4838,-1.4835,-1.4833,-1.483,-1.4935,-1.494,-1.4945,0,0,0,0,0,0,0,0,0,0,0,0,0,-1.4556,-1.456,-1.4788,-1.479,-1.4791,-1.4888,-1.4889,-1.4891,-1.4839,-1.4835,-1.4832,-1.4829,-1.4933,-1.4939,-1.4945,0,0,0,0,0,0,0,0,0,0,0,0,0,-1.4656,-1.4562,-1.4788,-1.4777,-1.4777,-1.4888,-1.4889,-1.4891,-1.4839,-1.4835,-1.4831,-1.4828,-1.4931,-1.4938,-1.4946,-1.5075,0,0,-1.497,-1.4974,0,0,0,0,0,0,0,0,-1.4651,-1.4665,-1.4777,-1.4778,-1.4778,-1.4846,-1.4845,-1.4953,-1.484,-1.4816,-1.483,-1.4826,-1.4909,-1.4918,-1.4946,-1.508,-1.5085,-1.4971,-1.4976,-1.4979,-1.4982,0,0,0,0,0,0,0,-1.4644,-1.466,-1.4828,-1.4779,-1.4779,-1.4767,-1.4777,-1.4865,-1.4884,-1.4817,-1.4814,-1.4826,-1.4908,-1.4938,-1.4948,-1.5086,-1.4971,-1.4978,-1.4983,-1.4986,-1.5333,-1.5337,0,0,0,0,0,0,-1.4637,-1.4655,-1.4825,-1.4831,-1.4703,-1.4775,-1.4786,-1.4829,-1.4882,-1.4887,-1.483,-1.4823,-1.4927,-1.4939,-1.4951,-1.5107,-1.4979,-1.4987,-1.4991,-1.5328,-1.5334,-1.5338,0,0,0,0,0,0,-1.4632,-1.4653,-1.4821,-1.4742,-1.4762,-1.4783,-1.4832,-1.4833,-1.4863,-1.4891,-1.4895,-1.4857,-1.4924,-1.494,-1.5045,-1.511,-1.499,-1.4997,-1.5323,-1.533,-1.5336,-1.5419,0,0,0,0,0,0,-1.4626,-1.4651,-1.47,-1.4743,-1.4767,-1.4913,-1.4835,-1.4837,-1.4876,-1.4869,-1.4918,-1.4922,-1.4922,-1.5033,-1.5053,-1.5119,-1.5004,-1.5317,-1.5326,-1.5334,-1.5411,-1.5428,-1.5443,0,0,0,0,0,-1.4618,-1.472,-1.4703,-1.4724,-1.4828,-1.4916,-1.493,-1.4927,-1.4882,-1.4931,-1.495,-1.4921,-1.5099,-1.5045,-1.5066,-1.5135,-1.5313,-1.5324,-1.5333,-1.5404,-1.5425,-1.5442,0,0,0,0,0,0,-1.4684,-1.4725,-1.4707,-1.4826,-1.4868,-1.4907,-1.497,-1.4949,-1.5005,-1.4996,-1.4991,-1.5002,-1.5112,-1.5133,-1.5072,-1.5263,-1.5199,-1.5214,-1.5246,-1.5266,-1.5281,-1.5275,-1.501,0,0,0,0,0,-1.4713,-1.478,-1.4812,-1.4914,-1.4936,-1.495,-1.4988,-1.4982,-1.5026,-1.5043,-1.5069,-1.5114,-1.518,-1.5223,-1.5286,-1.5413,-1.5424,-1.5471,-1.5487,-1.55,-1.5514,-1.5584,-1.5606,-1.5371,-1.5371,-1.5371,0,0,-1.4772,-1.4803,-1.4846,-1.4929,-1.496,-1.5032,-1.4965,-1.5043,-1.5096,-1.5055,-1.5156,-1.5177,-1.5226,-1.5343,-1.5396,-1.5364,-1.558,-1.5513,-1.5523,-1.553,-1.5596,-1.5619,-1.5638,-1.5378,-1.5377,-1.5376,0,0,-1.4918,-1.4947,-1.5036,-1.5069,-1.5118,-1.5126,-1.5147,-1.519,-1.5202,-1.5303,-1.5275,-1.5337,-1.5451,-1.5488,-1.5521,-1.568,-1.5656,-1.57,-1.5784,-1.5853,-1.5872,-1.5888,-1.5947,-1.5967,-1.5713,-1.5714,-1.5714,0,-1.4987,-1.5092,-1.5085,-1.5165,-1.5203,-1.5168,-1.5259,-1.5291,-1.5359,-1.5386,-1.5349,-1.5492,-1.5522,-1.5648,-1.5687,-1.5714,-1.5739,-1.5696,-1.5869,-1.5886,-1.5901,-1.5957,-1.5979,-1.5719,-1.5718,-1.5718,-1.5717,0,-1.5175,-1.5248,-1.5314,-1.5379,-1.5424,-1.5509,-1.5516,-1.5562,-1.5552,-1.5564,-1.5668,-1.5703,-1.5772,-1.5801,-1.5792,-1.5926,-1.5905,-1.5869,-1.5805,-1.5929,-1.5981,-1.6002,-1.5726,-1.5724,-1.5723,-1.5722,0,0,-1.5367,-1.5426,-1.5451,-1.5481,-1.5532,-1.5589,-1.5672,-1.5739,-1.578,-1.5827,-1.5898,-1.5995,-1.5962,-1.6,-1.5995,-1.6055,-1.6181,-1.6011,-1.6013,-1.6043,-1.6332,-1.6361,-1.6386,-1.6164,-1.6168,-1.6171,-1.6329,0,-1.5517,-1.5663,-1.5659,-1.5796,-1.5864,-1.5832,-1.5905,-1.5945,-1.5959,-1.6019,-1.6034,-1.6103,-1.6054,-1.6077,-1.6134,-1.6153,-1.6239,-1.6141,-1.6232,-1.6235,-1.6223,-1.6413,-1.6443,-1.659,-1.6349,-1.6353,-1.6355,0,-1.5713,-1.5767,-1.591,-1.5951,-1.598,-1.6046,-1.6107,-1.6165,-1.621,-1.6215,-1.6258,-1.6243,-1.6329,-1.626,-1.638,-1.6313,-1.635,-1.6365,-1.637,-1.638,-1.6304,-1.643,-1.6637,-1.666,-1.6387,-1.6385,-1.6382,0,-1.5842,-1.5949,-1.6049,-1.6075,-1.6125,-1.6173,-1.6196,-1.6236,-1.6277,-1.6331,-1.6358,-1.6421,-1.6456,-1.6506,-1.6509,-1.6458,-1.663,-1.6561,-1.6638,-1.6638,-1.6678,-1.6676,-1.6896,-1.6698,-1.6697,-1.6697,-1.6696,0,-1.6012,-1.6101,-1.6107,-1.6169,-1.6269,-1.6263,-1.6362,-1.6381,-1.6417,-1.6483,-1.6458,-1.652,-1.6519,-1.6583,-1.6585,-1.6684,-1.67,-1.6708,-1.6708,-1.6712,-1.6711,-1.6737,-1.6728,-1.6703,-1.6701,-1.67,-1.6699,0,-1.6173,-1.618,-1.6288,-1.6326,-1.6338,-1.641,-1.6444,-1.6503,-1.6513,-1.6597,-1.6616,-1.6633,-1.6707,-1.6714,-1.6799,-1.6801,-1.6921,-1.6909,-1.6907,-1.6905,-1.6983,-1.6976,-1.7229,-1.7262,-1.7041,-1.7043,-1.7045,0,-1.6282,-1.635,-1.6396,-1.6438,-1.6464,-1.6531,-1.6573,-1.657,-1.6614,-1.667,-1.6723,-1.6794,-1.685,-1.6969,-1.699,-1.7055,-1.7046,-1.713,-1.7056,-1.7058,-1.705,-1.7047,-1.7054,-1.7145,-1.7148,-1.715,-1.7151,0,-1.6476,-1.6476,-1.6536,-1.6599,-1.6649,-1.6697,-1.6743,-1.6779,-1.6781,-1.6832,-1.6907,-1.6951,-1.7038,-1.7109,-1.7173,-1.7198,-1.7177,-1.7174,-1.7196,-1.7201,-1.7198,-1.7203,-1.6948,-1.7169,-1.7167,-1.7166,-1.7165,-1.7164,-1.6616,-1.6675,-1.6717,-1.6785,-1.6819,-1.6862,-1.692,-1.6938,-1.7,-1.707,-1.7064,-1.7147,-1.719,-1.7274,-1.7303,-1.7369,-1.7341,-1.7372,-1.738,-1.7388,-1.7397,-1.7185,-1.738,-1.738,-1.7379,-1.7379,-1.7378,0,-1.681,-1.6835,-1.6898,-1.6962,-1.7016,-1.6989,-1.7038,-1.7086,-1.7159,-1.72,-1.7257,-1.7343,-1.7412,-1.7437,-1.7505,-1.7552,-1.7544,-1.757,-1.7568,-1.7574,-1.7417,-1.7393,-1.7576,-1.7576,-1.7576,-1.7576,-1.7576,-1.7576,-1.6918,-1.7017,-1.7022,-1.7139,-1.7163,-1.7244,-1.7275,-1.7315,-1.7348,-1.7445,-1.7502,-1.7518,-1.7554,-1.7623,-1.7686,-1.7692,-1.7719,-1.775,-1.7752,-1.7605,-1.7585,-1.7566,-1.7543,-1.7755,-1.7755,-1.7903,-1.7905,-1.7906]},{"header":{"parameterUnit":"m.s-1","parameterCategory":1,"la1":30.2991,"la2":30.254,"lo1":-89.0895,"lo2":-89.0444,"dy":0.0017,"dx":0.0017,"nx":28,"ny":28,"refTime":"2024-02-12T09:00:00:Z","depth":0,"parameterNumber":3,"parameterNumberName":"V-component_of_WINDS"},"data":[0,0,0,0,0,0,0,0,0,0,0,0,0,0,0,0,0,0,0,0,0,0,0,0,0,0,0,0,0,0,0,0,0,0,0,0,0,0,0,0,0,0,0,0,0,0,0,0,0,0,0,0,0,0,0,0,0,0,-3.1287,-3.1288,0,-3.1403,-3.1404,-3.1406,-3.1383,-3.1381,-3.1379,-3.1377,-3.1493,-3.1498,-3.1503,0,0,0,0,0,0,0,0,0,0,0,0,0,-3.1042,-3.1047,-3.1287,-3.1288,-3.129,-3.1403,-3.1405,-3.1406,-3.1384,-3.1381,-3.1379,-3.1376,-3.1492,-3.1498,-3.1504,0,0,0,0,0,0,0,0,0,0,0,0,0,-3.1153,-3.1049,-3.1286,-3.1292,-3.1294,-3.1403,-3.1405,-3.1407,-3.1384,-3.1381,-3.1378,-3.1375,-3.149,-3.1497,-3.1504,-3.1614,0,0,-3.1528,-3.1531,0,0,0,0,0,0,0,0,-3.1146,-3.1161,-3.129,-3.1292,-3.1294,-3.1376,-3.1361,-3.1476,-3.1385,-3.135,-3.1377,-3.1373,-3.1456,-3.1467,-3.1495,-3.1619,-3.1624,-3.1528,-3.1533,-3.1536,-3.1538,0,0,0,0,0,0,0,-3.1139,-3.1156,-3.1333,-3.1292,-3.1294,-3.1288,-3.13,-3.1383,-3.1419,-3.1353,-3.1351,-3.1366,-3.1457,-3.1488,-3.1498,-3.1626,-3.1528,-3.1535,-3.1539,-3.1542,-3.1846,-3.1849,0,0,0,0,0,0,-3.113,-3.115,-3.1329,-3.1336,-3.1211,-3.1295,-3.1309,-3.1353,-3.1418,-3.1425,-3.1368,-3.1364,-3.1477,-3.1489,-3.1502,-3.1634,-3.1536,-3.1543,-3.1547,-3.1842,-3.1846,-3.185,0,0,0,0,0,0,-3.1124,-3.1146,-3.1324,-3.1243,-3.1265,-3.1303,-3.1352,-3.1356,-3.1387,-3.143,-3.1436,-3.1393,-3.1475,-3.1491,-3.1586,-3.1638,-3.1546,-3.1553,-3.1838,-3.1843,-3.1848,-3.19,0,0,0,0,0,0,-3.1118,-3.1144,-3.1187,-3.1244,-3.127,-3.1408,-3.1355,-3.1361,-3.1401,-3.1397,-3.1455,-3.1462,-3.1473,-3.1575,-3.1594,-3.1647,-3.1559,-3.1833,-3.184,-3.1847,-3.1894,-3.1906,-3.1917,0,0,0,0,0,-3.1109,-3.1196,-3.1189,-3.1211,-3.1324,-3.1411,-3.1426,-3.1438,-3.1405,-3.1448,-3.1475,-3.146,-3.1629,-3.1585,-3.1606,-3.1662,-3.183,-3.1838,-3.1846,-3.1889,-3.1904,-3.1917,0,0,0,0,0,0,-3.1142,-3.1203,-3.1196,-3.1305,-3.1353,-3.1407,-3.1461,-3.1454,-3.1511,-3.1505,-3.1517,-3.153,-3.1627,-3.1654,-3.1604,-3.1771,-3.1725,-3.1737,-3.175,-3.1765,-3.1776,-3.1768,-3.1566,0,0,0,0,0,-3.1163,-3.1229,-3.1279,-3.1369,-3.1394,-3.1424,-3.1462,-3.1468,-3.1518,-3.1538,-3.1572,-3.162,-3.1684,-3.1726,-3.1787,-3.1898,-3.191,-3.1946,-3.1958,-3.1967,-3.1978,-3.2038,-3.2055,-3.1876,-3.1876,-3.1876,0,0,-3.1205,-3.1246,-3.1287,-3.1377,-3.1415,-3.1483,-3.1441,-3.1515,-3.1565,-3.1548,-3.1641,-3.1668,-3.1722,-3.1826,-3.1873,-3.1851,-3.203,-3.1977,-3.1984,-3.199,-3.2048,-3.2065,-3.208,-3.1882,-3.1881,-3.188,0,0,-3.1316,-3.1354,-3.1434,-3.1474,-3.1532,-3.1551,-3.1571,-3.1626,-3.1644,-3.1737,-3.1726,-3.1785,-3.1896,-3.1935,-3.1969,-3.2096,-3.2084,-3.2116,-3.2177,-3.2235,-3.2249,-3.2262,-3.2307,-3.2323,-3.2126,-3.2126,-3.2126,0,-3.1361,-3.1464,-3.1476,-3.1552,-3.1591,-3.1581,-3.1661,-3.1698,-3.1773,-3.1801,-3.1775,-3.1913,-3.1949,-3.2062,-3.2093,-3.2121,-3.2143,-3.2109,-3.2246,-3.2259,-3.2271,-3.2314,-3.2331,-3.213,-3.2129,-3.2129,-3.2129,0,-3.1515,-3.1587,-3.1644,-3.1719,-3.1765,-3.1842,-3.1866,-3.1911,-3.1912,-3.1934,-3.2029,-3.2072,-3.2141,-3.2168,-3.217,-3.2281,-3.2266,-3.2243,-3.2197,-3.2291,-3.2332,-3.2348,-3.2135,-3.2134,-3.2132,-3.2132,0,0,-3.1651,-3.1732,-3.1753,-3.1786,-3.185,-3.1905,-3.1982,-3.2051,-3.209,-3.2142,-3.2206,-3.23,-3.2279,-3.2319,-3.2325,-3.2376,-3.2474,-3.2347,-3.2349,-3.2369,-3.2599,-3.2615,-3.2634,-3.2466,-3.2469,-3.2472,-3.2594,0,-3.1768,-3.1905,-3.1919,-3.2041,-3.2107,-3.2098,-3.2164,-3.221,-3.2233,-3.2291,-3.2315,-3.2382,-3.235,-3.2373,-3.2424,-3.2451,-3.252,-3.2442,-3.2525,-3.2528,-3.2512,-3.2655,-3.2673,-3.2786,-3.261,-3.2613,-3.2615,0,-3.1923,-3.1981,-3.211,-3.2165,-3.2194,-3.2254,-3.2318,-3.2375,-3.2426,-3.2439,-3.2483,-3.2482,-3.2561,-3.2512,-3.2619,-3.2566,-3.2601,-3.262,-3.2624,-3.2632,-3.2577,-3.2667,-3.2823,-3.2839,-3.264,-3.2638,-3.2636,0,-3.2009,-3.2119,-3.2211,-3.224,-3.2306,-3.2349,-3.2378,-3.2427,-3.2468,-3.2524,-3.2551,-3.2615,-3.265,-3.2699,-3.2716,-3.2679,-3.2823,-3.2775,-3.2835,-3.2835,-3.2865,-3.2863,-3.3028,-3.2888,-3.2888,-3.2887,-3.2887,0,-3.2139,-3.2218,-3.2251,-3.2307,-3.2395,-3.241,-3.2496,-3.2523,-3.2567,-3.2628,-3.2623,-3.268,-3.2698,-3.2758,-3.2771,-3.2858,-3.2874,-3.2886,-3.2889,-3.2887,-3.2885,-3.2909,-3.2902,-3.2892,-3.2891,-3.289,-3.2889,0,-3.225,-3.2275,-3.2374,-3.2429,-3.2445,-3.2507,-3.2554,-3.2608,-3.2629,-3.2706,-3.2725,-3.2759,-3.2829,-3.285,-3.2934,-3.2943,-3.3045,-3.304,-3.3028,-3.3028,-3.3087,-3.3081,-3.3273,-3.3299,-3.3141,-3.3143,-3.3144,0,-3.2331,-3.2392,-3.2454,-3.2495,-3.2526,-3.2592,-3.2634,-3.2651,-3.2694,-3.2758,-3.2804,-3.2874,-3.2931,-3.3043,-3.3074,-3.3138,-3.3135,-3.3198,-3.3145,-3.3141,-3.3136,-3.3132,-3.3138,-3.3208,-3.321,-3.3211,-3.3212,0,-3.2472,-3.2482,-3.2543,-3.2609,-3.266,-3.2712,-3.2763,-3.2796,-3.282,-3.2869,-3.2941,-3.2985,-3.3072,-3.3141,-3.3207,-3.3236,-3.3228,-3.3229,-3.3246,-3.3245,-3.3235,-3.3241,-3.3055,-3.3224,-3.3223,-3.3222,-3.3222,-3.3221,-3.2571,-3.2624,-3.2677,-3.2745,-3.2785,-3.2833,-3.2886,-3.2915,-3.2976,-3.3048,-3.3054,-3.3132,-3.3182,-3.3269,-3.3302,-3.3363,-3.3344,-3.3369,-3.3375,-3.3381,-3.3386,-3.3226,-3.3374,-3.3374,-3.3374,-3.3374,-3.3373,0,-3.2711,-3.2745,-3.2808,-3.2879,-3.2933,-3.2922,-3.2978,-3.3023,-3.3092,-3.314,-3.3196,-3.3279,-3.3346,-3.3383,-3.345,-3.3491,-3.3489,-3.3508,-3.3505,-3.3512,-3.3399,-3.3377,-3.3508,-3.3508,-3.3508,-3.3508,-3.3508,-3.3508,-3.2791,-3.2882,-3.2897,-3.3007,-3.304,-3.3117,-3.315,-3.3193,-3.3232,-3.3325,-3.3381,-3.3405,-3.3448,-3.3518,-3.3579,-3.3588,-3.3612,-3.3633,-3.364,-3.3534,-3.352,-3.3507,-3.3486,-3.3639,-3.3639,-3.3748,-3.3749,-3.375]}]]